FW0094 Weather Reports


time (UTC)temp
C
wind
direction
speed
KPH
gust
KPH
rain 1hr
cm
rain 24hr
cm
rain mn
cm
humidity
%
barometer
mb
20260504190108 26 0 0.0 11.3 0.00 0.00 0.00 30 1017.3
20260504185557 26 146 1.6 11.3 0.00 0.00 0.00 30 1017.3
20260504185100 26 265 1.6 9.7 0.00 0.00 0.00 33 1017.3
20260504184557 26 0 0.0 9.7 0.00 0.00 0.00 31 1017.3
20260504184057 26 0 0.0 9.7 0.00 0.00 0.00 33 1017.5
20260504183600 26 101 1.6 11.3 0.00 0.00 0.00 29 1017.4
20260504183054 26 0 1.6 11.3 0.00 0.00 0.00 32 1017.4
20260504182556 26 188 0.0 12.9 0.00 0.00 0.00 33 1017.5
20260504182057 25 0 3.2 12.9 0.00 0.00 0.00 31 1017.5
20260504181602 26 0 1.6 12.9 0.00 0.00 0.00 29 1017.5
20260504181058 26 0 1.6 12.9 0.00 0.00 0.00 30 1017.7
20260504180557 26 268 3.2 12.9 0.00 0.00 0.00 30 1017.7
20260504180058 26 279 1.6 17.7 0.00 0.00 0.00 31 1017.8
20260504175559 25 223 0.0 17.7 0.00 0.00 0.00 30 1017.9
20260504175057 25 257 4.8 12.9 0.00 0.00 0.00 31 1017.9
20260504174604 25 194 3.2 14.5 0.00 0.00 0.00 29 1017.8
20260504174057 26 113 1.6 14.5 0.00 0.00 0.00 30 1017.8
20260504173600 26 180 0.0 9.7 0.00 0.00 0.00 30 1017.7
20260504173058 26 109 1.6 11.3 0.00 0.00 0.00 27 1017.7
20260504172558 26 223 1.6 11.3 0.00 0.00 0.00 31 1017.7
20260504172058 26 168 0.0 6.4 0.00 0.00 0.00 31 1017.7
20260504171557 26 0 0.0 14.5 0.00 0.00 0.00 32 1017.8
20260504171058 25 0 0.0 14.5 0.00 0.00 0.00 31 1017.9
20260504170558 25 0 1.6 14.5 0.00 0.00 0.00 30 1017.9
20260504151101 25 0 0.0 1.6 0.00 0.00 0.00 38 1018.6
20260504150557 25 0 0.0 1.6 0.00 0.00 0.00 38 1018.5
20260504141059 22 0 0.0 0.0 0.00 0.00 0.00 52 1018.5
20260504140557 22 0 0.0 3.2 0.00 0.00 0.00 51 1018.7
20260504130557 17 0 0.0 1.6 0.00 0.00 0.00 60 1018.6
20260504110559 12 0 0.0 0.0 0.00 0.00 0.00 62 1017.8
20260504110105 12 0 0.0 0.0 0.00 0.00 0.00 62 1017.9
20260504100556 12 0 0.0 0.0 0.00 0.00 0.00 62 1018.2
20260504081558 13 0 0.0 0.0 0.00 0.00 0.00 62 1017.9
20260504081058 13 0 0.0 0.0 0.00 0.00 0.00 61 1018.0
20260504080558 13 0 0.0 0.0 0.00 0.00 0.00 61 1017.9
20260504050558 15 0 0.0 0.0 0.00 0.00 0.00 58 1019.4
20260504045559 15 0 0.0 0.0 0.00 0.00 0.00 58 1019.5
20260504045059 15 0 0.0 0.0 0.00 0.00 0.00 58 1019.6
20260504044557 15 0 0.0 0.0 0.00 0.00 0.00 58 1019.6
20260504044059 15 0 0.0 0.0 0.00 0.00 0.00 58 1019.5
20260504043559 15 0 0.0 0.0 0.00 0.00 0.00 58 1019.7
20260504043104 15 0 0.0 0.0 0.00 0.00 0.00 58 1019.7
20260504042558 15 0 0.0 0.0 0.00 0.00 0.00 58 1019.7
20260504042056 15 0 0.0 0.0 0.00 0.00 0.00 58 1019.7
20260504041557 15 0 0.0 0.0 0.00 0.00 0.00 58 1019.6
20260504041058 16 0 0.0 0.0 0.00 0.00 0.00 58 1019.6
20260504040558 16 0 0.0 0.0 0.00 0.00 0.00 58 1019.6
20260504040131 16 0 0.0 0.0 0.00 0.00 0.00 57 1019.5
20260504035558 16 0 0.0 0.0 0.00 0.00 0.00 57 1019.6
20260504035100 16 0 0.0 0.0 0.00 0.00 0.00 57 1019.5
20260504034602 16 0 0.0 0.0 0.00 0.00 0.00 57 1019.5
20260504034058 16 0 0.0 0.0 0.00 0.00 0.00 57 1019.6
20260504033558 16 0 0.0 0.0 0.00 0.00 0.00 57 1019.6
20260504033056 16 0 0.0 0.0 0.00 0.00 0.00 56 1019.6
20260504032558 16 0 0.0 0.0 0.00 0.00 0.00 55 1019.5
20260504032102 16 0 0.0 0.0 0.00 0.00 0.00 55 1019.6
20260504031614 16 0 0.0 0.0 0.00 0.00 0.00 55 1019.6
20260504031057 16 0 0.0 0.0 0.00 0.00 0.00 55 1019.6
20260504030557 16 0 0.0 0.0 0.00 0.00 0.00 55 1019.6
20260504030057 17 0 0.0 0.0 0.00 0.00 0.00 55 1019.5
20260504025600 17 0 0.0 1.6 0.00 0.00 0.00 55 1019.4
20260504025059 17 0 0.0 1.6 0.00 0.00 0.00 54 1019.4
20260504024605 17 0 0.0 1.6 0.00 0.00 0.00 54 1019.3
20260504024058 17 0 0.0 0.0 0.00 0.00 0.00 53 1019.4
20260504023558 17 0 0.0 0.0 0.00 0.00 0.00 53 1019.3
20260504023056 17 0 0.0 0.0 0.00 0.00 0.00 52 1019.3
20260504022558 17 0 0.0 0.0 0.00 0.00 0.00 52 1019.3
20260504022058 17 0 0.0 0.0 0.00 0.00 0.00 51 1019.3
20260504021558 18 0 0.0 0.0 0.00 0.00 0.00 51 1019.2
20260504021058 18 0 0.0 0.0 0.00 0.00 0.00 51 1019.1
20260504020600 18 0 0.0 0.0 0.00 0.00 0.00 50 1018.9
20260504020112 18 0 0.0 0.0 0.00 0.00 0.00 49 1018.9
20260504015559 18 0 0.0 0.0 0.00 0.00 0.00 49 1018.9
20260504015058 18 0 0.0 0.0 0.00 0.00 0.00 48 1018.9
20260504014603 18 0 0.0 0.0 0.00 0.00 0.00 47 1018.9
20260504014058 19 0 0.0 0.0 0.00 0.00 0.00 47 1018.9
20260504013558 19 0 0.0 0.0 0.00 0.00 0.00 46 1018.8
20260504013100 19 0 0.0 0.0 0.00 0.00 0.00 45 1018.7
20260504012601 20 0 0.0 0.0 0.00 0.00 0.00 45 1018.7
20260504012059 20 0 0.0 0.0 0.00 0.00 0.00 45 1018.7
20260504011600 20 0 0.0 1.6 0.00 0.00 0.00 44 1018.6
20260504011059 20 0 0.0 1.6 0.00 0.00 0.00 43 1018.6
20260504010558 20 0 0.0 1.6 0.00 0.00 0.00 43 1018.5
20260504010058 20 0 0.0 0.0 0.00 0.00 0.00 42 1018.6
20260504005558 21 0 0.0 0.0 0.00 0.00 0.00 41 1018.6
20260504005058 21 0 0.0 0.0 0.00 0.00 0.00 40 1018.5
20260504004558 21 0 0.0 0.0 0.00 0.00 0.00 39 1018.4
20260504004058 21 0 0.0 0.0 0.00 0.00 0.00 38 1018.4
20260504003558 21 0 0.0 0.0 0.00 0.00 0.00 37 1018.4
20260504003057 21 0 0.0 0.0 0.00 0.00 0.00 37 1018.3
20260504002558 22 0 0.0 0.0 0.00 0.00 0.00 36 1018.4
20260504002058 22 0 0.0 0.0 0.00 0.00 0.00 35 1018.3
20260504001603 22 0 0.0 0.0 0.00 0.00 0.00 35 1018.4
20260504001100 22 0 0.0 0.0 0.00 0.00 0.00 35 1018.4
20260504000557 22 0 0.0 0.0 0.00 0.00 0.00 35 1018.3
20260504000101 22 0 0.0 1.6 0.00 0.00 0.00 35 1018.3
20260503235558 22 0 0.0 4.8 0.00 0.00 0.00 35 1018.3
20260503235102 22 0 0.0 4.8 0.00 0.00 0.00 34 1018.3
20260503234624 22 0 0.0 4.8 0.00 0.00 0.00 34 1018.4
20260503234103 22 0 0.0 4.8 0.00 0.00 0.00 33 1018.4
20260503233558 23 0 0.0 1.6 0.00 0.00 0.00 33 1018.4
20260503233059 23 0 0.0 3.2 0.00 0.00 0.00 32 1018.5
20260503232558 23 0 0.0 14.5 0.00 0.00 0.00 30 1018.6
20260503232058 23 0 1.6 14.5 0.00 0.00 0.00 31 1018.6
20260503231557 23 0 0.0 1.6 0.00 0.00 0.00 32 1018.5
20260503231058 23 0 0.0 3.2 0.00 0.00 0.00 33 1018.5
20260503230600 23 0 0.0 3.2 0.00 0.00 0.00 32 1018.4
20260503230058 23 0 0.0 3.2 0.00 0.00 0.00 32 1018.5
20260503225557 23 0 0.0 6.4 0.00 0.00 0.00 31 1018.6
20260503225058 24 0 0.0 9.7 0.00 0.00 0.00 30 1018.6
20260503224557 24 0 0.0 9.7 0.00 0.00 0.00 30 1018.6
20260503224058 24 0 0.0 9.7 0.00 0.00 0.00 29 1018.7
20260503223559 24 0 0.0 9.7 0.00 0.00 0.00 28 1018.7
20260503223059 25 0 0.0 6.4 0.00 0.00 0.00 28 1018.6
20260503222558 25 0 0.0 11.3 0.00 0.00 0.00 28 1018.7
20260503222058 25 0 1.6 11.3 0.00 0.00 0.00 27 1018.7
20260503221606 25 0 0.0 9.7 0.00 0.00 0.00 26 1018.8
20260503221058 25 0 1.6 9.7 0.00 0.00 0.00 26 1018.9
20260503220558 25 0 0.0 6.4 0.00 0.00 0.00 26 1018.9
20260503220056 25 267 0.0 6.4 0.00 0.00 0.00 26 1018.9
20260503215557 25 273 0.0 6.4 0.00 0.00 0.00 27 1018.9
20260503215058 25 0 0.0 8.0 0.00 0.00 0.00 28 1019.1
20260503214556 25 263 1.6 9.7 0.00 0.00 0.00 27 1019.1
20260503214058 25 278 0.0 9.7 0.00 0.00 0.00 27 1019.1
20260503213558 25 0 0.0 8.0 0.00 0.00 0.00 27 1019.1
20260503213055 25 0 0.0 6.4 0.00 0.00 0.00 27 1019.2
20260503212558 25 0 0.0 6.4 0.00 0.00 0.00 25 1019.3
20260503212058 25 234 0.0 6.4 0.00 0.00 0.00 27 1019.4
20260503211559 25 0 0.0 6.4 0.00 0.00 0.00 28 1019.4
20260503211057 25 275 0.0 16.1 0.00 0.00 0.00 26 1019.4
20260503210558 25 275 3.2 16.1 0.00 0.00 0.00 26 1019.5
20260503210055 25 0 0.0 6.4 0.00 0.00 0.00 27 1019.6
20260503205600 26 258 0.0 6.4 0.00 0.00 0.00 27 1019.7
20260503205058 26 0 0.0 6.4 0.00 0.00 0.00 28 1019.7
20260503204601 25 0 0.0 6.4 0.00 0.00 0.00 27 1019.7
20260503204058 25 0 0.0 9.7 0.00 0.00 0.00 29 1019.8
20260503203558 25 0 0.0 11.3 0.00 0.00 0.00 27 1019.8
20260503203059 25 0 3.2 12.9 0.00 0.00 0.00 27 1019.9
20260503202558 25 271 0.0 14.5 0.00 0.00 0.00 27 1020.0
20260503202058 25 0 1.6 14.5 0.00 0.00 0.00 28 1020.0
20260503201558 25 0 0.0 11.3 0.00 0.00 0.00 28 1020.1
20260503201059 25 261 0.0 11.3 0.00 0.00 0.00 26 1020.2
20260503200558 25 182 0.0 11.3 0.00 0.00 0.00 29 1020.2
20260503200058 25 195 0.0 11.3 0.00 0.00 0.00 28 1020.4
20260503195600 25 0 0.0 12.9 0.00 0.00 0.00 26 1020.4
20260503195057 25 173 1.6 12.9 0.00 0.00 0.00 27 1020.5
20260503194600 25 0 0.0 9.7 0.00 0.00 0.00 27 1020.5
20260503194058 25 0 0.0 6.4 0.00 0.00 0.00 27 1020.7
20260503193558 25 301 0.0 6.4 0.00 0.00 0.00 28 1020.8
20260503193057 25 275 1.6 6.4 0.00 0.00 0.00 26 1020.8
20260503192558 26 0 0.0 6.4 0.00 0.00 0.00 26 1020.7
20260503192057 26 0 0.0 6.4 0.00 0.00 0.00 27 1020.9
20260503191556 25 259 0.0 11.3 0.00 0.00 0.00 25 1020.9
20260503191100 25 0 0.0 11.3 0.00 0.00 0.00 26 1021.1
20260503190559 25 122 0.0 11.3 0.00 0.00 0.00 21 1021.1